Satellite-Ground Cal/Val Site Overpasses Predictions

Prediction of Satellite NPP Overpassing Cal/Val Site: Antarctic Dome C

Ground Cal/Val Site Location: Latitude: -75.10, Longitude: 123.35; Satellite-Ground Site NADIR distance within 100 km.

Table of predicted overpasses for the next 14.0 days since TLE Epoch: 2/26/2014
Interval Starting Time Ending Time Minimum Distance Time Minimum Distance (km)
1 02/27/2014 15:04:47 02/27/2014 15:05:09 02/27/2014 15:04:58 64.25
2 02/28/2014 14:45:55 02/28/2014 14:46:21 02/28/2014 14:46:08 45.01
3 03/01/2014 07:47:37 03/01/2014 07:47:59 03/01/2014 07:47:48 65.60
4 03/02/2014 07:28:47 03/02/2014 07:29:13 03/02/2014 07:29:00 42.32
5 03/05/2014 14:52:14 03/05/2014 14:52:43 03/05/2014 14:52:28 10.06
6 03/06/2014 07:54:07 03/06/2014 07:54:08 03/06/2014 07:54:08 99.76
7 03/07/2014 07:35:04 03/07/2014 07:35:34 03/07/2014 07:35:19 5.99
8 03/10/2014 14:58:34 03/10/2014 14:59:02 03/10/2014 14:58:48 26.38
9 03/11/2014 14:39:51 03/11/2014 14:40:07 03/11/2014 14:39:59 80.62
